SiriusSat 1
1 43595U 98067PG 20344.55055662 .07916525 12514-4 56251-3 0 9997
2 43595 51.6588 97.6693 0009437 42.2825 52.9592 16.39998780132780
SiriusSat 2
1 43596U 98067PH 20344.36554324 .08904132 12494-4 57179-3 0 9995
2 43596 51.6062 99.6513 0006261 312.7483 99.6145 16.40921535132742
SurfSat
1 43614U 18070B 20345.41164303 .00007371 00000-0 18189-3 0 9998
2 43614 93.0282 227.4954 0015997 27.1072 333.1015 15.40408821125554
CP-7 DAVE
1 43615U 18070C 20345.39768449 .00006861 00000-0 17050-3 0 9996
2 43615 93.0286 227.4676 0016151 26.7896 333.4189 15.40194327125549
ELFIN-B
1 43616U 18070D 20345.64889455 .00010096 00000-0 23525-3 0 9995
2 43616 93.0244 227.5887 0016376 26.0141 334.1934 15.42112482125656
ELFIN-A
1 43617U 18070E 20345.65541778 .00010424 00000-0 24033-3 0 9990
2 43617 93.0301 228.2578 0015635 23.4797 336.7169 15.42443732125665
STARS-Me Mother
1 43640U 98067PQ 20345.60023161 .00043393 00000-0 31372-3 0 9991
2 43640 051.6311 131.0973 0003291 324.9874 035.0908 15.73027032124374
CubeBel 1
1 43666U 18083E 20345.85408741 .00002122 00000-0 10531-3 0 9996
2 43666 97.4750 10.4748 0016348 104.4398 20.6965 15.18691287117380
Changshagaoxin
1 43669U 18083H 20345.89873935 .00001587 00000-0 82128-4 0 9990
2 43669 97.4641 8.1727 0012439 98.6029 23.7939 15.17634012117281
Ten-Koh
1 43677U 18084G 20345.33174803 .00000412 00000-0 48215-4 0 9992
2 43677 97.9013 102.1767 0014739 300.9712 59.0057 14.90365318115135
PO-101
1 43678U 18084H 20345.69604238 .00000257 00000-0 31315-4 0 9992
2 43678 97.9038 104.3076 0008994 322.4257 37.6352 14.91683315115297
IRVINE 01
1 43693U 18088D 20345.41557633 .00008369 00000-0 34313-3 0 9991
2 43693 085.0329 320.4578 0017676 012.0909 348.0754 15.23949188115638
QO-100
1 43700U 18090A 20345.82063148 .00000154 00000-0 00000 0 0 9997
2 43700 0.0175 19.0695 0001560 268.6275 113.5265 1.00271362 7728
Reaktor Hello World
1 43743U 18096AA 20345.37056204 .00003766 00000-0 14025-3 0 9993
2 43743 97.4066 58.2453 0016497 222.2070 137.7901 15.27975219113252
MinXSS-2
1 43758U 18099A 20345.74267647 .00001270 00000-0 11864-3 0 9994
2 43758 97.6901 54.6521 0014454 324.3801 35.6455 14.95833172110309
AO-95
1 43770U 18099N 20345.19749299 .00000882 00000-0 85474-4 0 9992
2 43770 97.6889 53.3534 0013751 335.3382 24.7179 14.95129948110179
RANGE-B
1 43772U 18099Q 20345.19334688 .00000934 00000-0 89710-4 0 9991
2 43772 97.6964 54.0726 0013153 321.5411 38.4871 14.95367976110178
RANGE-A
1 43773U 18099R 20345.32626348 .00000579 00000-0 58020-4 0 9999
2 43773 97.6827 52.9790 0012508 321.6170 38.4160 14.95071947110183
MOVE-II
1 43780U 18099Y 20345.76358114 .00001114 00000-0 10529-3 0 9995
2 43780 97.6902 54.2513 0012613 331.3147 28.7378 14.95627550110261
SNUSat 2
1 43782U 18099AA 20345.19477543 .00000699 00000-0 68416-4 0 9998
2 43782 97.6886 53.6257 0011715 321.3773 38.6609 14.95386363110180
SnugLite
1 43784U 18099AC 20345.48559766 .00001127 00000-0 10680-3 0 9996
2 43784 097.6855 053.6880 0014091 328.5761 031.4617 14.95499924110241
ITASat 1
1 43786U 18099AE 20345.15550843 .00000951 00000-0 91018-4 0 9998
2 43786 97.6910 53.8576 0014218 329.0055 31.0325 14.95453035110191
EAGLET 1
1 43790U 18099AJ 20345.43734397 .00000282 00000-0 30357-4 0 9998
2 43790 97.6899 54.4666 0012771 332.8471 27.2081 14.95832582109951
ESEO
1 43792U 18099AL 20345.19580786 .00000306 00000-0 32636-4 0 9993
2 43792 97.6865 53.9568 0012464 330.0677 29.9830 14.95658378109970
CSIM
1 43793U 18099AM 20345.51404882 .00000813 00000-0 77024-4 0 9995
2 43793 097.6878 054.3941 0012095 324.7782 035.2639 14.96281373110014
Astrocast 0.1
1 43798U 18099AS 20345.20794655 .00000975 00000-0 92045-4 0 9995
2 43798 97.6897 54.3790 0011113 311.5249 48.5018 14.95982526110222
JO-97
1 43803U 18099AX 20345.14798530 .00001288 00000-0 12086-3 0 9995
2 43803 97.6870 53.6306 0014108 328.9993 31.0394 14.95657948110197
Suomi 100
1 43804U 18099AY 20345.15045895 .00001184 00000-0 11152-3 0 9994
2 43804 97.6869 53.6130 0014205 329.1623 30.8762 14.95639809110206
Al Farabi 2
1 43805U 18099AZ 20345.84463505 .00000725 00000-0 69990-4 0 9997
2 43805 97.6894 54.4324 0014594 326.7668 33.2625 14.95803696110316
PWSat 2
1 43814U 18099BJ 20345.41268657 .00187558 00000-0 62271-2 0 9994
2 43814 97.7911 71.2956 0009424 273.6466 86.3695 15.30388709110417
CHOMPTT
1 43855U 18104G 20345.44319225 .00002580 00000-0 10627-3 0 9997
2 43855 085.0390 058.7320 0019367 120.1923 240.1241 15.23399028110313
ISAT
1 43879U 18111D 20345.70788396 .00001481 00000-0 13556-3 0 9992
2 43879 97.6924 250.1939 0014023 22.0093 338.1736 14.96414818104827
UWE-4
1 43880U 18111E 20345.72618958 .00000429 00000-0 42673-4 0 9996
2 43880 97.6951 250.5797 0012915 21.5582 338.6181 14.96651326104859
Sparrow
1 43881U 18111F 20345.70342416 .00001214 00000-0 11121-3 0 9994
2 43881 97.6964 250.6552 0013172 21.0211 339.1549 14.96702704104855
Lume 1
1 43908U 18111AJ 20345.39891299 .00003164 00000-0 12696-3 0 9991
2 43908 97.2498 240.0031 0019306 238.7274 121.2074 15.25535530108849
FO-98
1 43933U 19003B 20345.49223846 .00002108 00000-0 92690-4 0 9998
2 43933 97.2078 28.2843 0017193 346.5639 13.5138 15.22822246105316
FO-99
1 43937U 19003F 20345.58640235 .00003414 00000-0 13892-3 0 9994
2 43937 097.2046 030.1358 0022598 325.2531 034.7230 15.24939648105470
Delphini 1
1 44030U 98067PW 20345.53311921 .00104238 00000-0 57353-3 0 9994
2 44030 051.6292 135.1070 0001806 323.8729 036.2149 15.78903823106181
MYSat 1
1 44045U 18092F 20345.24565244 .00007404 00000-0 20506-3 0 9994
2 44045 051.6386 268.0919 0010230 237.1144 122.8856 15.37980698102327
AstroCast 0.2
1 44083U 19018F 20345.71456382 .00001840 00000-0 83695-4 0 9996
2 44083 97.4002 44.1297 0011418 275.0211 84.9721 15.21940096 94183
AISTechSat 3
1 44103U 19018AB 20345.87437383 .00001870 00000-0 81134-4 0 9995
2 44103 97.3870 44.5676 0011787 290.4879 157.4996 15.23537149 94298
AISat 1
1 44104U 19018AC 20345.81114941 .00002127 00000-0 69390-4 0 9998
2 44104 97.4471 56.4428 0056251 307.4726 52.1407 15.31462204 94790
Raavana-1
1 44329U 98067QE 20345.49850871 .00035847 00000-0 38531-3 0 9998
2 44329 051.6362 168.9474 0004500 287.8349 072.2154 15.63386189084481
Uguisu
1 44330U 98067QF 20345.77914267 .00035431 00000-0 38313-3 0 9998
2 44330 51.6345 167.7744 0004475 287.3482 72.7023 15.63239040 84501
NepaliSat-1
1 44331U 98067QG 20345.74524661 .00034177 00000-0 36759-3 0 9999
2 44331 51.6336 167.5506 0004501 292.0997 67.9520 15.63393976 84518
Prox-1
1 44339U 19036A 20345.27954716 .00001407 00000-0 28266-3 0 9996
2 44339 24.0005 85.3421 0010874 276.7259 83.1994 14.53267858 77701
Oculus-ASR
1 44348U 19036K 20345.29763462 .00026338 00000-0 38033-3 0 9997
2 44348 028.5145 307.2451 0351178 028.2256 333.6902 15.06675804080301
Armadillo
1 44352U 19036P 20345.17367540 .00037085 00000-0 51800-3 0 9994
2 44352 28.5296 297.9994 0331311 42.0155 320.5360 15.11383917 80332
NO-104
1 44354U 19036R 20345.23414702 .00026841 00000-0 37957-3 0 9991
2 44354 28.5292 303.2460 0347229 33.1840 329.0033 15.07910419 80335
NO-103
1 44355U 19036S 20343.96983213 .00041422 00000-0 52785-3 0 9996
2 44355 28.5278 290.8872 0309989 53.2557 309.6088 15.17522163 80359
CP9
1 44360U 19036X 20343.96922496 .00063623 -48847-5 61932-3 0 9996
2 44360 28.5079 260.1863 0271614 104.4303 258.6594 15.30208909 80534
Move-IIb
1 44398U 19038N 20345.79232570 .00002739 00000-0 15844-3 0 9994
2 44398 97.5580 305.0493 0023154 239.1725 120.7227 15.12900985 79234
